User: anonymous   Login
Location: Unspecified
(0.0000°N, 0.0000°E)
Time: 18:52:12
(UTC+00:00)
Language:

Meteosat 2 - Orbit

View from above orbital plane
View from above orbital plane
View from above satellite
View from above satellite

Ground track
Ground track

The orbit data is extracted from the following two-line orbital elements,

1 12544U 81057A   19341.13810404 -.00000043  00000-0  00000+0 0  9993
2 12544  14.0912 338.4895 0034342 323.0361  33.2503  0.98724365100347
Epoch (UTC): 07 December 2019 03:18:52
Eccentricity: 0.0034342
inclination: 14.0912°
perigee height: 36079 km
apogee height: 36372 km
right ascension of ascending node: 338.4895°
argument of perigee: 323.0361°
revolutions per day: 0.98724365
mean anomaly at epoch: 33.2503°
orbit number at epoch: 10034

The dashed part of the orbit path shows where the satellite is in the earth's shadow,  

DLR